Overview Statistics Trail Chart Weather Telemetry Raw packets
 

This is the latest recevied weather packets stored in our database for station/object W6MAF. If no packets are shown the sender has not sent any weather packets the latest 10 day(s).

<< 64 65 66 67 68 69 70 >>
Time Temp. Humidity Pressure Rain* Wind** Luminosity Snow
1788207981 27.22° C 5% - 0 mm 9.83 m/s, 187° - -
1788207683 26.67° C 5% - 0 mm 2.68 m/s, 208° - -
1788207385 26.67° C 5% - 0 mm 7.15 m/s, 177° - -
1788207088 26.67° C 5% - 0 mm 8.05 m/s, 198° - -
1788206790 26.67° C 5% - 0 mm 7.15 m/s, 179° - -
1788206492 26.67° C 6% - 0 mm 7.15 m/s, 186° - -
1788206191 26.67° C 6% - 0 mm 7.6 m/s, 162° - -
1788205894 26.67° C 5% - 0 mm 8.49 m/s, 180° - -
1788205596 26.67° C 5% - 0 mm 5.81 m/s, 160° - -
1788205298 26.67° C 6% - 0 mm 7.15 m/s, 197° - -
1788205000 26.67° C 6% - 0 mm 8.49 m/s, 181° - -
1788204703 26.67° C 5% - 0 mm 8.05 m/s, 179° - -
1788204402 26.67° C 5% - 0 mm 6.71 m/s, 180° - -
1788204104 26.67° C 5% - 0 mm 7.15 m/s, 166° - -
1788203806 26.67° C 5% - 0 mm 7.15 m/s, 172° - -
1788203509 26.67° C 5% - 0 mm 6.71 m/s, 177° - -
1788203211 26.67° C 5% - 0 mm 5.36 m/s, 162° - -
1788202913 26.67° C 5% - 0 mm 5.36 m/s, 194° - -
1788202611 26.67° C 5% - 0 mm 7.15 m/s, 166° - -
1788202441 26.67° C 5% - 0 mm 8.05 m/s, 191° - -
1788202314 26.67° C 5% - 0 mm 8.05 m/s, 191° - -
1788202016 26.67° C 5% - 0 mm 7.15 m/s, 195° - -
1788201718 26.67° C 5% - 0 mm 8.05 m/s, 176° - -
1788201421 26.67° C 5% - 0 mm 6.71 m/s, 194° - -
1788200822 26.67° C 5% - 0 mm 5.81 m/s, 187° - -

* Rain latest hour (hover to see other rain measurements)
** Current wind speed in m/s (hover to see current wind gust speed)